EW0742 Weather Reports


time (UTC)temp
C
wind
direction
speed
KPH
gust
KPH
rain 1hr
cm
rain 24hr
cm
rain mn
cm
humidity
%
barometer
mb
20260504081600 7 170 0.0 8.0 0.00 0.00 0.00 71 1006.6
20260504044531 5 149 0.0 0.0 0.00 0.00 0.00 74 1007.2
20260504043026 4 154 0.0 0.0 0.00 0.00 0.00 78 1007.3
20260504041522 3 153 0.0 0.0 0.00 0.00 0.00 79 1007.5
20260504040020 3 159 0.0 0.0 0.00 0.00 0.00 82 1007.3
20260504034535 3 158 0.0 0.0 0.00 0.00 0.00 81 1007.5
20260504033026 3 332 0.0 0.0 0.00 0.00 0.00 81 1007.5
20260504031519 3 332 0.0 0.0 0.00 0.00 0.00 73 1007.4
20260504030025 5 332 0.0 0.0 0.00 0.00 0.00 71 1007.5
20260504024519 5 142 0.0 0.0 0.00 0.00 0.00 70 1007.6
20260504023017 5 144 0.0 0.0 0.00 0.00 0.00 70 1007.7
20260504021517 5 142 0.0 0.0 0.00 0.00 0.00 67 1007.9
20260504020016 5 152 0.0 3.2 0.00 0.03 0.00 67 1007.7
20260504014519 5 148 0.0 1.6 0.00 0.03 0.00 72 1007.8
20260504013016 4 335 0.0 0.0 0.00 0.03 0.00 76 1007.8
20260504011515 4 347 0.0 0.0 0.00 0.03 0.00 74 1007.8
20260504010014 5 347 0.0 0.0 0.00 0.05 0.00 73 1007.6
20260504004515 5 347 0.0 0.0 0.00 0.05 0.00 69 1007.5
20260504003013 6 353 0.0 0.0 0.00 0.05 0.00 66 1007.4
20260504001513 7 353 0.0 0.0 0.00 0.05 0.00 60 1007.4
20260504000012 7 352 0.0 0.0 0.00 0.08 0.00 57 1007.3
20260503234512 8 148 0.0 0.0 0.00 0.08 0.00 55 1007.3
20260503233011 9 333 0.0 0.0 0.00 0.08 0.00 53 1007.1
20260503231516 9 145 0.0 0.0 0.00 0.08 0.00 52 1007.1
20260503230012 9 145 0.0 1.6 0.00 0.10 0.00 53 1007.1
20260503224509 10 145 0.0 0.0 0.00 0.10 0.00 52 1007.2
20260503223015 10 158 0.0 0.0 0.00 0.10 0.00 52 1007.2
20260503221506 10 142 0.0 0.0 0.00 0.10 0.00 51 1007.3
20260503220011 10 158 0.0 0.0 0.00 0.10 0.00 51 1007.3
20260503214505 10 146 0.0 1.6 0.00 0.10 0.00 49 1007.3
20260503213003 10 18 0.0 0.0 0.00 0.10 0.00 50 1007.3
20260503211504 10 316 0.0 0.0 0.00 0.10 0.00 55 1007.2
20260503210003 10 167 0.0 0.0 0.00 0.15 0.00 49 1007.3
20260503204501 10 308 0.0 0.0 0.00 0.15 0.00 50 1007.3
20260503203115 10 304 0.0 0.0 0.00 0.15 0.00 50 1007.3
20260503201559 10 335 0.0 0.0 0.00 0.15 0.00 50 1007.6
20260503200101 10 153 0.0 0.0 0.00 0.15 0.00 49 1007.6
20260503194556 9 148 0.0 0.0 0.00 0.15 0.00 54 1007.8
20260503193054 8 316 0.0 0.0 0.00 0.15 0.00 57 1008.0
20260503191603 8 316 0.0 0.0 0.00 0.15 0.00 54 1008.1
20260503190055 9 319 0.0 1.6 0.00 0.15 0.00 54 1008.2
20260503184606 9 345 0.0 4.8 0.00 0.15 0.00 55 1008.2
20260503183048 8 333 0.0 3.2 0.00 0.15 0.00 55 1008.4
20260503181545 9 117 0.0 1.6 0.00 0.15 0.00 55 1008.5
20260503180045 9 141 0.0 0.0 0.00 0.15 0.00 58 1008.5
20260503174555 10 351 0.0 0.0 0.00 0.15 0.00 57 1008.6
20260503173041 8 153 0.0 1.6 0.00 0.15 0.00 59 1008.7
20260503171539 8 322 0.0 0.0 0.00 0.15 0.00 59 1008.9